Date String (YYYY-MM-DD hh:mm:ss) UTC,Instrument flags,Ambient pressure (hPa),Sample flow (lpm),Bypass flow (lpm),Sample temperature (°C),Ambient temperature (°C),ASC tube jacket temperature (°C),LED temperature (°C),Box temperature (°C),Sample RH (%),Span deviation,Mass concentration (μg/m³),Mass concentration (μg/m³),Mass concentration (μg/m³)
DateTimeUTC,F1_M11,P_M11,Q1_M11,Q2_M11,T1_M11,T2_M11,T3_M11,T4_M11,T5_M11,U1_M11,ZSPAN_M11,X0_M11,X2_M11,X1_M11
2021-08-25 22:00:00,,0830.8,4.99,0.00,29.8,26.0,00.0,38.6,30.7,33.7,0001.6,0033.79,0014.02,0012.08
2021-08-25 22:01:00,,0830.8,5.00,0.00,29.6,25.9,00.0,38.6,30.6,33.8,0001.6,0033.07,0013.94,0012.05
2021-08-25 22:02:00,,0830.8,5.00,0.00,29.6,26.3,00.0,38.6,30.8,33.7,0001.7,0032.65,0013.94,0012.04
2021-08-25 22:03:00,,0830.8,5.00,0.00,29.6,26.8,00.0,38.5,30.9,33.7,0001.9,0032.18,0013.81,0011.99
2021-08-25 22:04:00,,0830.8,5.01,0.00,29.6,27.2,00.0,38.5,31.0,33.8,0001.9,0032.88,0013.75,0011.94
2021-08-25 22:05:00,,0830.8,4.98,0.00,29.6,27.6,00.0,38.5,31.1,33.9,0001.8,0033.73,0013.85,0011.92
2021-08-25 22:06:00,,0830.9,5.02,0.00,29.7,27.9,00.0,38.6,31.3,33.7,0001.9,0032.91,0013.87,0011.92
2021-08-25 22:07:00,,0830.9,4.99,0.00,29.7,28.2,00.0,38.6,31.3,33.4,0001.9,0030.72,0013.87,0011.88
2021-08-25 22:08:00,,0830.8,5.02,0.00,29.8,28.4,00.0,38.6,31.4,33.5,0001.8,0030.35,0013.91,0011.87
2021-08-25 22:09:00,,0830.8,5.00,0.00,29.7,27.5,00.0,38.6,31.1,33.5,0002.0,0031.48,0013.89,0011.84
2021-08-25 22:10:00,,0830.8,4.99,0.00,29.6,26.1,00.0,38.6,30.7,33.7,0002.0,0031.93,0013.85,0011.79
2021-08-25 22:11:00,,0830.8,5.01,0.00,29.5,25.9,00.0,38.6,30.6,34.2,0001.8,0031.43,0013.81,0011.73
2021-08-25 22:12:00,,0830.7,5.00,0.00,29.4,26.2,00.0,38.5,30.7,34.1,0001.5,0030.76,0013.73,0011.66
2021-08-25 22:13:00,,0830.6,5.00,0.00,29.4,26.7,00.0,38.5,30.8,34.3,0001.3,0029.88,0013.65,0011.60
2021-08-25 22:14:00,,0830.7,4.99,0.00,29.4,27.2,00.0,38.5,31.0,33.6,0001.3,0029.84,0013.68,0011.57
2021-08-25 22:15:00,,0830.6,5.00,0.00,29.5,27.6,00.0,38.5,31.1,33.2,0001.2,0028.59,0013.66,0011.54
2021-08-25 22:16:00,,0830.6,4.99,0.00,29.5,27.9,00.0,38.5,31.2,33.0,0001.3,0027.79,0013.45,0011.49
2021-08-25 22:17:00,,0830.6,5.00,0.00,29.6,28.2,00.0,38.5,31.3,33.0,0001.2,0028.01,0013.34,0011.40
2021-08-25 22:18:00,,0830.6,5.00,0.00,29.6,28.5,00.0,38.5,31.4,32.1,0001.1,0029.07,0013.30,0011.35
2021-08-25 22:19:00,,0830.7,5.00,0.00,29.7,28.4,00.0,38.5,31.4,31.8,0001.1,0030.22,0013.22,0011.29
2021-08-25 22:20:00,,0830.6,5.01,0.00,29.6,27.0,00.0,38.5,31.0,32.7,0001.1,0028.91,0013.09,0011.20
2021-08-25 22:21:00,,0830.6,4.99,0.00,29.5,26.0,00.0,38.5,30.7,33.5,0001.1,0028.09,0012.99,0011.15
2021-08-25 22:22:00,,0830.6,5.01,0.00,29.4,26.1,00.0,38.5,30.7,33.4,0001.4,0028.39,0012.92,0011.10
2021-08-25 22:23:00,,0830.6,5.00,0.00,29.4,26.6,00.0,38.4,30.9,33.5,0001.7,0028.93,0012.86,0011.06
2021-08-25 22:24:00,,0830.6,5.00,0.00,29.4,27.1,00.0,38.4,31.0,33.6,0001.7,0029.63,0012.84,0011.01
2021-08-25 22:25:00,,0830.6,4.99,0.00,29.4,27.5,00.0,38.4,31.1,33.9,0001.5,0029.13,0012.75,0010.97
2021-08-25 22:26:00,,0830.6,5.00,0.00,29.5,27.9,00.0,38.4,31.3,34.2,0001.4,0028.58,0012.67,0010.92
2021-08-25 22:27:00,,0830.6,4.99,0.00,29.5,28.2,00.0,38.5,31.4,34.3,0001.5,0028.67,0012.73,0010.93
2021-08-25 22:28:00,,0830.6,5.00,0.00,29.6,28.5,00.0,38.5,31.5,33.5,0001.6,0028.64,0012.78,0010.93
2021-08-25 22:29:00,,0830.6,5.00,0.00,29.6,28.0,00.0,38.5,31.3,33.0,0001.6,0027.68,0012.77,0010.93
2021-08-25 22:30:00,,0830.6,5.02,0.00,29.5,26.4,00.0,38.5,30.8,33.6,0001.7,0026.48,0012.71,0010.92
2021-08-25 22:31:00,,0830.6,4.99,0.00,29.4,26.0,00.0,38.5,30.7,33.5,0001.4,0026.31,0012.76,0010.95
2021-08-25 22:32:00,,0830.6,5.00,0.00,29.3,26.3,00.0,38.4,30.8,33.4,0001.8,0025.68,0012.75,0010.95
2021-08-25 22:33:00,,0830.6,5.00,0.00,29.3,26.8,00.0,38.4,30.9,33.4,0001.7,0025.78,0012.74,0010.94
2021-08-25 22:34:00,,0830.6,5.01,0.00,29.3,27.2,00.0,38.4,31.0,33.8,0001.4,0025.46,0012.81,0010.96
2021-08-25 22:35:00,,0830.6,4.99,0.00,29.4,27.6,00.0,38.4,31.2,33.6,0001.2,0026.86,0012.87,0010.95
2021-08-25 22:36:00,,0830.6,5.00,0.00,29.4,28.0,00.0,38.4,31.3,34.1,0001.3,0026.52,0012.91,0010.93
2021-08-25 22:37:00,,0830.6,5.00,0.00,29.5,28.2,00.0,38.4,31.3,33.1,0001.4,0026.74,0012.90,0010.92
2021-08-25 22:38:00,,0830.6,5.00,0.00,29.4,27.1,00.0,38.4,30.9,32.5,0001.4,0026.59,0012.81,0010.86
2021-08-25 22:39:00,,0830.6,5.01,0.00,29.3,25.9,00.0,38.4,30.6,32.4,0001.1,0026.25,0012.71,0010.81
2021-08-25 22:40:00,,0830.6,4.99,0.00,29.2,25.9,00.0,38.4,30.6,32.1,0001.2,0026.44,0012.61,0010.75
2021-08-25 22:41:00,,0830.5,5.00,0.00,29.2,26.3,00.0,38.3,30.7,32.0,0001.3,0026.11,0012.53,0010.68
2021-08-25 22:42:00,,0830.5,5.00,0.00,29.1,26.8,00.0,38.3,30.8,31.8,0001.3,0026.20,0012.48,0010.58
2021-08-25 22:43:00,,0830.5,5.00,0.00,29.2,27.2,00.0,38.3,30.9,32.0,0001.1,0026.47,0012.50,0010.53
2021-08-25 22:44:00,,0830.5,5.01,0.00,29.2,27.6,00.0,38.3,31.1,31.9,0001.2,0027.05,0012.49,0010.49
2021-08-25 22:45:00,,0830.5,5.00,0.00,29.3,28.0,00.0,38.3,31.2,32.0,0001.3,0027.35,0012.36,0010.42
2021-08-25 22:46:00,,0830.5,5.00,0.00,29.4,28.3,00.0,38.3,31.3,32.2,0001.4,0026.04,0012.23,0010.36
2021-08-25 22:47:00,,0830.5,5.00,0.00,29.4,28.5,00.0,38.3,31.4,31.4,0001.5,0025.91,0012.14,0010.30
2021-08-25 22:48:00,,0830.5,4.98,0.00,29.5,28.3,00.0,38.4,31.3,31.1,0001.5,0026.78,0012.11,0010.25
2021-08-25 22:49:00,,0830.5,5.00,0.00,29.4,26.7,00.0,38.3,30.8,31.3,0001.4,0026.58,0012.15,0010.26
2021-08-25 22:50:00,,0830.4,4.99,0.00,29.2,25.9,00.0,38.3,30.6,30.7,0001.5,0027.15,0012.15,0010.25
2021-08-25 22:51:00,,0830.5,5.01,0.00,29.2,26.0,00.0,38.3,30.6,30.2,0001.2,0029.76,0012.15,0010.27
2021-08-25 22:52:00,,0830.4,4.99,0.00,29.1,26.5,00.0,38.3,30.8,30.6,0001.5,0031.22,0012.23,0010.30
2021-08-25 22:53:00,,0830.4,5.00,0.00,29.2,27.0,00.0,38.3,30.9,31.4,0001.8,0032.99,0012.21,0010.32
2021-08-25 22:54:00,,0830.4,5.00,0.00,29.2,27.4,00.0,38.3,31.0,31.2,0001.6,0033.93,0012.19,0010.31
2021-08-25 22:55:00,,0830.4,5.01,0.00,29.3,27.8,00.0,38.3,31.1,31.5,0001.5,0032.82,0012.12,0010.29
2021-08-25 22:56:00,,0830.4,4.99,0.00,29.3,28.1,00.0,38.3,31.3,31.0,0001.5,0032.49,0012.08,0010.26
2021-08-25 22:57:00,,0830.4,5.00,0.00,29.4,28.4,00.0,38.3,31.3,30.8,0001.6,0032.91,0012.05,0010.23
2021-08-25 22:58:00,,0830.4,5.01,0.00,29.4,28.3,00.0,38.3,31.3,30.6,0001.5,0032.39,0012.02,0010.23
2021-08-25 22:59:00,,0830.4,4.99,0.00,29.4,26.8,00.0,38.3,30.8,30.7,0001.5,0032.00,0011.92,0010.20
